Coolangatta, Australia

10:06 PM AEST on August 17, 2017 (GMT +1000)
Coolangatta

Weather History for YBCG - May, 2014

Change the Weather History Date:

Thursday, May 22, 2014

  Actual Average Record
Temperature  
Mean Temperature 67 °F -  
Max Temperature 75 °F - - ()
Min Temperature 59 °F - - ()
Cooling Degree Days 2    
Growing Degree Days 17 (Base 50)    
Moisture  
Dew Point 60 °F    
Average Humidity 81    
Maximum Humidity 94    
Minimum Humidity 57    
Precipitation  
Precipitation 0.12 in - - ()
Sea Level Pressure  
Sea Level Pressure 30.19 in    
Wind  
Wind Speed 4 mph ()    
Max Wind Speed 10 mph    
Max Gust Speed -    
Visibility 6.2 miles    
Events      
T = Trace of Precipitation, MM = Missing Value Source: Averaged Metar Reports

Daily Weather History Graph

Daily Weather History Graph

Search for Another Location

Airport or City:

Trip Planner

Search our weather history database for the weather conditions in past years. The results will help you decide how hot, cold, wet, or windy it might be!

Date:

Astronomy

May. 22, 2014 Rise Set
Actual Time 6:24 AM AEST 5:00 PM AEST
Civil Twilight 5:59 AM AEST 5:26 PM AEST
Nautical Twilight 5:30 AM AEST 5:54 PM AEST
Astronomical Twilight 5:02 AM AEST 6:22 PM AEST
Moon No Moon Rise 12:30 PM AEST (5/22)
Length of Visible Light 11h 26m
Length of Day
10h 36m
Last Quarter, 44% of the Moon is Illuminated
May 22
Last Quarter
May 29
New
Jun 6
First Quarter
Jun 13
Full
Jun 20
Last Quarter

Hourly Weather History & Observations

Time (AEST) Temp. Dew Point Humidity Pressure Visibility Wind Dir Wind Speed Gust Speed Precip Events Conditions
12:00 AM 60 °F 58 °F 90% 30.22 in - SSW 3.5 mph - -  
12:00 AM 60.8 °F 57.2 °F 88% 30.21 in 6.2 mi SSW 3.5 mph - N/A   Scattered Clouds
12:30 AM 59.0 °F 57.2 °F 94% 30.21 in 6.2 mi SSW 4.6 mph - N/A   Scattered Clouds
1:00 AM 59.0 °F 57.2 °F 94% 30.21 in 6.2 mi SSW 3.5 mph - N/A   Mostly Cloudy
1:30 AM 60.8 °F 59.0 °F 94% 30.21 in 6.2 mi SSW 3.5 mph - N/A   Overcast
2:00 AM 62.6 °F 59.0 °F 88% 30.18 in 6.2 mi SSW 3.5 mph - N/A   Overcast
2:30 AM 60.8 °F 57.2 °F 88% 30.18 in 6.2 mi South 3.5 mph - N/A   Scattered Clouds
3:00 AM 61 °F 58 °F 87% 30.20 in - South 4.6 mph - -  
3:00 AM 60.8 °F 59.0 °F 94% 30.18 in 6.2 mi South 4.6 mph - N/A   Scattered Clouds
3:30 AM 60.8 °F 57.2 °F 88% 30.18 in 6.2 mi Calm Calm - N/A   Scattered Clouds
4:00 AM 60.8 °F 57.2 °F 88% 30.18 in 6.2 mi SSE 5.8 mph - N/A   Mostly Cloudy
4:30 AM 60.8 °F 57.2 °F 88% 30.18 in 6.2 mi South 4.6 mph - N/A   Scattered Clouds
5:00 AM 60.8 °F 57.2 °F 88% 30.18 in 6.2 mi South 4.6 mph - N/A   Scattered Clouds
5:30 AM 60.8 °F 57.2 °F 88% 30.18 in 6.2 mi South 5.8 mph - N/A   Scattered Clouds
6:00 AM 61 °F 58 °F 86% 30.22 in - South 4.6 mph - -  
6:00 AM 60.8 °F 57.2 °F 88% 30.21 in 6.2 mi South 4.6 mph - N/A   Scattered Clouds
6:30 AM 62.6 °F 59.0 °F 88% 30.21 in 6.2 mi South 4.6 mph - N/A   Overcast
7:00 AM 62.6 °F 59.0 °F 88% 30.21 in 6.2 mi South 4.6 mph - N/A   Scattered Clouds
7:30 AM 62.6 °F 60.8 °F 94% 30.24 in 6.2 mi SSE 4.6 mph - N/A   Mostly Cloudy
8:00 AM 64.4 °F 60.8 °F 88% 30.24 in 6.2 mi SE 5.8 mph - N/A   Mostly Cloudy
8:30 AM 66.2 °F 60.8 °F 83% 30.24 in 6.2 mi SE 2.3 mph - N/A   Overcast
9:00 AM 68 °F 62 °F 75% 30.25 in - SSW 3.5 mph - -   Overcast
9:00 AM 68.0 °F 62.6 °F 83% 30.24 in 6.2 mi SSW 3.5 mph - N/A   Overcast
9:30 AM 69.8 °F 62.6 °F 78% 30.24 in 6.2 mi South 5.8 mph - N/A   Overcast
10:00 AM 69.8 °F 60.8 °F 73% 30.24 in 6.2 mi South 8.1 mph - N/A   Overcast
10:30 AM 73.4 °F 60.8 °F 65% 30.24 in 6.2 mi South 8.1 mph - N/A   Overcast
11:00 AM 73.4 °F 60.8 °F 65% 30.21 in 6.2 mi SSE 10.4 mph - N/A   Scattered Clouds
11:30 AM 75.2 °F 62.6 °F 65% 30.21 in 6.2 mi South 9.2 mph - N/A   Unknown
12:00 PM 74 °F 62 °F 57% 30.20 in - South 8.1 mph - -   Overcast
12:00 PM 73.4 °F 62.6 °F 69% 30.18 in 6.2 mi South 8.1 mph - N/A   Mostly Cloudy
12:30 PM 73.4 °F 60.8 °F 65% 30.18 in 6.2 mi South 6.9 mph - N/A   Scattered Clouds
1:00 PM 73.4 °F 60.8 °F 65% 30.15 in 6.2 mi SSE 6.9 mph - N/A   Overcast
1:30 PM 73.4 °F 60.8 °F 65% 30.15 in 6.2 mi ESE 6.9 mph - N/A   Scattered Clouds
2:00 PM 73.4 °F 60.8 °F 65% 30.15 in 6.2 mi SE 10.4 mph - N/A   Scattered Clouds
2:30 PM 73.4 °F 60.8 °F 65% 30.15 in 6.2 mi ESE 9.2 mph - N/A   Scattered Clouds
3:00 PM 72 °F 62 °F 63% 30.16 in - ESE 9.2 mph - -  
3:00 PM 71.6 °F 62.6 °F 73% 30.15 in 6.2 mi ESE 9.2 mph - N/A   Scattered Clouds
3:30 PM 71.6 °F 62.6 °F 73% 30.15 in 6.2 mi ESE 8.1 mph - N/A   Scattered Clouds
4:00 PM 71.6 °F 60.8 °F 69% 30.15 in 6.2 mi ESE 8.1 mph - N/A   Overcast
4:30 PM 71.6 °F 60.8 °F 69% 30.15 in 6.2 mi SE 4.6 mph - N/A   Overcast
5:00 PM 69.8 °F 60.8 °F 73% 30.15 in 6.2 mi SSE 3.5 mph - N/A   Overcast
5:30 PM 68.0 °F 62.6 °F 83% 30.15 in 6.2 mi South 3.5 mph - N/A   Mostly Cloudy
6:00 PM 67 °F 63 °F 83% 30.16 in - WSW 5.8 mph - -  
6:00 PM 68.0 °F 62.6 °F 83% 30.15 in 6.2 mi WSW 5.8 mph - N/A   Scattered Clouds
6:30 PM 68.0 °F 62.6 °F 83% 30.15 in 6.2 mi WSW 6.9 mph - N/A   Mostly Cloudy
7:00 PM 66.2 °F 62.6 °F 88% 30.18 in 6.2 mi WSW 4.6 mph - N/A   Mostly Cloudy
7:30 PM 66.2 °F 62.6 °F 88% 30.18 in 6.2 mi SW 5.8 mph - N/A   Overcast
8:00 PM 66.2 °F 62.6 °F 88% 30.18 in 6.2 mi Calm Calm - N/A   Overcast
8:30 PM 66.2 °F 60.8 °F 83% 30.18 in 6.2 mi SW 3.5 mph - N/A   Mostly Cloudy
9:00 PM 65 °F 61 °F 83% 30.19 in - SSW 1.2 mph - -  
9:00 PM 64.4 °F 60.8 °F 88% 30.18 in 6.2 mi SSW 1.2 mph - N/A   Mostly Cloudy
9:30 PM 64.4 °F 60.8 °F 88% 30.18 in 6.2 mi WSW 2.3 mph - N/A   Scattered Clouds
10:00 PM 62.6 °F 60.8 °F 94% 30.18 in 6.2 mi Calm Calm - N/A   Mostly Cloudy
10:30 PM 64.4 °F 62.6 °F 94% 30.18 in 6.2 mi Calm Calm - N/A   Overcast
11:00 PM 64.4 °F 62.6 °F 94% 30.18 in 6.2 mi SSW 1.2 mph - N/A   Overcast
11:30 PM 62.6 °F 60.8 °F 94% 30.15 in 6.2 mi West 4.6 mph - N/A   Mostly Cloudy